[ hide orbit diagram ]
For accurate long-term ephemerides, please instead use our Horizons system.This orbit viewer was implemented using two-body methods, and hence should not be used for determining accurate long-term trajectories (over several years or decades) or planetary encounter circumstances.
[ revert to old Java-based viewer ]
Orbital Elements at Epoch 2458600.5 (2019-Apr-27.0) TDB
Reference: JPL 7 (heliocentric ecliptic J2000)
Element | Value | Uncertainty (1-sigma) | Units |
e | .2730345385333258 | 4.6609e-05 | |
a | 50.28607444076202 | 0.0038361 | au |
q | 36.5562393111761 | 0.00047032 | au |
i | 27.80800787111364 | 4.6891e-05 | deg |
node | 157.9890815712065 | 0.0004366 | deg |
peri | 259.2600277674002 | 0.0064651 | deg |
M | 4.100349336454584 | 0.0034977 | deg |
tp | 2457116.997147240725 (2015-Apr-04.49714724) | 1.277 | TDB |
period | 130247.6894456806 356.60 | 14.904 0.0408 | d yr |
n | .002763964578044488 | 3.1627e-07 | deg/d |
Q | 64.01590957034794 | 0.0048834 | au |
|
| | Orbit Determination Parameters
Additional Information
|
[ show covariance matrix ]
471210 (2010 VW11) Discovered 2010-Nov-03 by Rabinowitz, D. L., Schwamb, M., Tourtellotte, S. at La Silla |
Reference: | Last Updated: 2016-08-22 |
|
|